sat.trackr.live / text

‹ back to catalog

STARLINK-36848

NORAD 67936 · 2026-037E

PAYLOAD ACTIVE UNKNOWN

§ Identity

Operator
Country
US
Launch date
2026-02-24
Launch site
AFETR
Launch vehicle
Mass (kg)
RCS (m²)

Purposes: comms

External: N2YO · Heavens-Above · Gunter

§ Orbital elements

Epoch: 2026-09-19T04:48:19.713888Z

Period
94.27 min
Inclination
42.9975°
Eccentricity
0.0001073
Mean motion
15.27607501 rev/d
Perigee alt
482.2 km
Apogee alt
483.7 km
Semi-major
6,861.1 km
B*
5.9411e-4
RAAN
178.0681°
Arg perigee
260.9688°
Mean anomaly
99.1042°
Rev number
3,293

§ Raw data

STARLINK-368481 67936U 26037E   26262.20022817  .00016136  00000+0  59411-3 0  99982 67936  42.9975 178.0681 0001073 260.9688  99.1042 15.27607501 32936

JSON: /api/v1/satellites/67936 · /tle

For live sub-satellite position, see the globe view (requires WebGL).

§ Visibility from observer

Set your observer location to see the next 7 days of passes ≥ 10°. The values pass through the URL so the page stays shareable.

No JS? Fill the form by hand. The geolocation button needs JavaScript.